Flag Weather past 2 weeks in King's Lynn, England, United Kingdom

Now
55 °F

Fog.


Feels Like: 53 °F
Forecast: 49 / 55 °F
Wind: 9 mph from South

Location: Marham

Current Time: Nov 22, 2014 at 2:18:28 PM

Latest Report: Nov 22, 2014 at 12:50 PM


Visibility: 4 mi

Pressure: 29.89 "Hg

Humidity: 94%

Dew point: 54 °F

Location of King's LynnLocation

Historic Weather in King's Lynn — Graph

°F

King's Lynn temperature yesterday

Maximum temperature yesterday: 50 °F (at 11:50 AM)
Minimum temperature yesterday: 45 °F (at 5:50 AM)
Average temperature yesterday: 47 °F

Past Weeks' High & Low Weather Summary

 TemperatureHumidityPressure
High57 °F (Nov 8, 1:50 PM)100% (Nov 8, 11:50 PM)30.30 "Hg (Nov 8, 11:50 PM)
Low37 °F (Nov 20, 6:50 AM)71% (Nov 7, 2:50 PM)29.21 "Hg (Nov 7, 12:50 PM)
Average48 °F90%29.69 "Hg
* Reported Nov 7 12:50 PM — Nov 22 12:50 PM, King's Lynn, Weather by CustomWeather, © 2014

Note: Actual official high and low records may vary slightly from our data, if they occured in-between our weather recording intervals... More about our weather records

Advertising

King's Lynn weather history for previous 24 hours

 ConditionsComfort  
Time TempWeatherWind HumidityBarometerVisibility
12:50 PM
Nov 22
55 °FFog.9 mph94%29.89 "Hg4 mi
11:50 AM55 °FFog.8 mph94%29.92 "Hg4 mi
10:50 AM54 °FFog.10 mph100%29.92 "Hg3 mi
9:50 AM54 °FFog.10 mph94%29.89 "Hg2 mi
8:50 AM52 °FFog.8 mph94%29.89 "Hg2 mi
7:50 AM52 °FFog.8 mph94%29.86 "Hg3 mi
6:50 AM50 °FFog.9 mph100%29.86 "Hg3 mi
5:50 AM50 °FFog.8 mph100%29.86 "Hg3 mi
4:50 AM50 °FSprinkles. Passing clouds.10 mph94%29.86 "Hg3 mi
3:50 AM50 °FFog.12 mph94%29.86 "Hg3 mi
2:50 AM50 °FLow clouds.10 mph94%29.89 "Hg3 mi
1:50 AM50 °FLow clouds.14 mph88%29.89 "Hg3 mi
12:50 AM50 °FLow clouds.15 mph88%29.89 "Hg3 mi
11:50 PM
Nov 21
48 °FPassing clouds.17 mph94%29.89 "Hg3 mi
10:50 PM48 °FPassing clouds.14 mph94%29.92 "Hg4 mi
9:50 PM48 °FPassing clouds.12 mph94%29.95 "Hg4 mi
8:50 PM48 °FPassing clouds.7 mph87%29.98 "Hg3 mi
7:50 PM46 °FPassing clouds.8 mph93%29.98 "Hg3 mi
6:50 PM48 °FOvercast.8 mph87%30.01 "Hg6 mi
5:50 PM48 °FRain showers. Overcast.12 mph87%29.98 "Hg4 mi
4:50 PM48 °FLight rain. Overcast.12 mph87%30.01 "Hg4 mi
3:50 PM48 °FLight rain. Partly sunny.12 mph82%30.01 "Hg4 mi
2:50 PM48 °FLight rain. Broken clouds.10 mph82%30.04 "HgN/A
Weather by CustomWeather, © 2014

See weather overviewHow to use our weather pages